This is the latest recevied weather packets stored in our database for station/object KD5BIG-13. If no packets are shown the sender has not sent any weather packets the latest 10 day(s).
| Time | Temp. | Humidity | Pressure | Rain* | Wind** | Luminosity | Snow |
|---|---|---|---|---|---|---|---|
| 1777665959 | 12.78° C | 96% | 1017.4 hPa | 3.05 mm | - | 40 W/m² | - |
| 1777665657 | 12.78° C | 96% | 1017.8 hPa | 2.29 mm | - | 29 W/m² | - |
| 1777665354 | 12.78° C | 96% | 1017.9 hPa | 1.78 mm | - | 25 W/m² | - |
| 1777665049 | 12.78° C | 95% | 1017.7 hPa | 1.78 mm | - | 24 W/m² | - |
| 1777664745 | 12.78° C | 95% | 1017.6 hPa | 1.27 mm | - | 43 W/m² | - |
| 1777664441 | 12.78° C | 95% | 1017.7 hPa | 1.27 mm | - | 38 W/m² | - |
| 1777664139 | 12.78° C | 95% | 1017.8 hPa | 1.78 mm | - | 63 W/m² | - |
| 1777663838 | 13.33° C | 95% | 1017.6 hPa | 1.27 mm | - | 55 W/m² | - |
| 1777663534 | 13.33° C | 95% | 1017.6 hPa | 0.51 mm | - | 82 W/m² | - |
| 1777663232 | 13.33° C | 95% | 1017.8 hPa | 1.27 mm | - | 122 W/m² | - |
| 1777662928 | 13.33° C | 96% | 1017.6 hPa | 1.27 mm | - | 53 W/m² | - |
| 1777662626 | 13.33° C | 96% | 1017.8 hPa | 1.27 mm | - | 136 W/m² | - |
| 1777662321 | 13.33° C | 96% | 1017.5 hPa | 1.27 mm | - | 90 W/m² | - |
| 1777662017 | 13.33° C | 96% | 1017.7 hPa | 1.27 mm | - | 58 W/m² | - |
| 1777661713 | 13.33° C | 96% | 1017.7 hPa | 1.27 mm | - | 78 W/m² | - |
| 1777661409 | 13.33° C | 96% | 1017.7 hPa | 2.29 mm | - | 71 W/m² | - |
| 1777661106 | 13.33° C | 96% | 1017.7 hPa | 2.29 mm | - | 97 W/m² | - |
| 1777660800 | 13.33° C | 96% | 1017.9 hPa | 2.29 mm | - | 93 W/m² | - |
| 1777660498 | 13.33° C | 96% | 1017.9 hPa | 3.56 mm | - | 103 W/m² | - |
| 1777660194 | 13.33° C | 96% | 1018.1 hPa | 3.05 mm | - | 95 W/m² | - |
| 1777659891 | 13.33° C | 96% | 1018.1 hPa | 1.27 mm | - | 116 W/m² | - |
| 1777659587 | 13.33° C | 95% | 1018.4 hPa | 1.78 mm | - | 111 W/m² | - |
| 1777659285 | 13.33° C | 94% | 1018.7 hPa | 3.56 mm | - | 110 W/m² | - |
| 1777658982 | 13.33° C | 94% | 1018.5 hPa | 3.56 mm | - | 141 W/m² | - |
| 1777658679 | 13.89° C | 95% | 1018.9 hPa | 3.56 mm | - | 121 W/m² | - |
* Rain latest hour (hover to see other rain measurements)
** Current wind speed in m/s (hover to see current wind gust speed)